GFSSW_850_dewp_243.txt.gz
Dewpoint
-10 -9 -8 -8 -8 -7 -7 -6 -6 -6 -6 -5 -4 -3 -2 -2 -3 1 1 1 2 -0 -1 5 2 1 2 2 2 2 3 2 0 -4 0 8 7 4 4 4 9 12 12 12 13
-12 -11 -10 -9 -9 -9 -8 -7 -7 -7 -7 -6 -4 -3 -2 -2 -2 -0 1 -1 -1 -2 2 2 0 1 1 -0 1 2 -0 -1 1 4 7 10 9 9 8 5 8 11 13 14 14
-11 -12 -12 -12 -11 -11 -10 -9 -8 -8 -7 -6 -6 -5 -4 -3 0 -1 -1 -1 -1 -1 3 3 2 2 1 -1 -1 0 1 -3 2 4 4 9 8 8 9 9 5 7 12 13 13
-11 -11 -12 -12 -13 -13 -13 -12 -10 -9 -8 -7 -6 -7 -6 -4 -1 0 -1 -1 -1 -1 2 2 1 1 0 -1 -2 2 -0 0 2 3 2 4 3 6 7 7 6 5 7 13 14
-12 -12 -13 -13 -13 -13 -13 -14 -13 -11 -10 -8 -7 -7 -7 -2 -3 -2 -2 -1 -1 -0 2 1 1 1 1 -1 -2 -1 -3 -1 -1 1 2 2 3 4 5 4 6 5 6 10 12
-12 -12 -12 -13 -13 -13 -14 -14 -14 -14 -12 -10 -8 -7 -2 -3 -3 -3 -3 -1 0 -0 -1 2 3 3 2 0 0 -1 -2 -2 -3 -3 -2 -0 1 2 3 4 5 6 5 7 11
-12 -11 -10 -10 -10 -11 -12 -13 -15 -15 -14 -11 -10 -7 -0 -5 -4 -3 -2 -0 -0 1 -0 -1 4 3 2 0 1 -0 1 -2 -4 -4 -5 -6 -5 -2 1 4 6 5 4 6 9
-9 -10 -10 -10 -10 -10 -10 -10 -13 -15 -14 -13 -11 -2 -2 -5 -5 -3 -1 0 -0 1 0 -0 -0 2 2 2 1 1 -1 0 -5 -5 -6 -5 -6 -12 -8 -0 2 3 3 3 9
-9 -9 -10 -11 -11 -11 -10 -9 -11 -13 -15 -13 -7 1 -4 -4 -7 -3 -0 -0 1 1 1 -1 -1 -0 1 2 2 0 0 -3 -4 -5 -4 -5 -6 -8 -7 -5 -3 1 3 3 7
-7 -8 -10 -12 -12 -12 -10 -9 -10 -12 -9 -2 2 -0 -4 -5 1 1 1 1 1 1 1 0 -0 1 1 2 5 1 -1 -3 -2 -4 -2 -3 -4 -6 -5 -3 -4 -4 -0 3 3
-7 -8 -10 -12 -12 -10 -9 -7 1 2 2 -4 -3 -5 -2 -0 1 2 2 2 1 1 2 1 2 3 0 0 -0 0 1 -0 -3 -4 -2 -2 -3 -4 -5 -4 -4 -3 -3 -1 2
-7 -8 -10 -11 -12 -9 -7 -2 -3 -3 -3 -4 -10 -3 -3 1 1 2 2 1 1 2 -0 2 3 -1 -2 -1 -0 1 1 1 -2 -2 -1 -2 -3 -6 -6 -5 -5 -6 -6 -4 -2
-4 -5 -7 -10 -12 -7 -9 -6 -7 -3 -4 -9 -5 -2 -2 -2 -3 -2 2 1 0 1 0 2 1 -1 -0 1 2 1 1 0 0 -1 -1 -1 -0 -3 -5 -6 -6 -6 -6 -7 -5
-1 -2 -3 -5 -5 -7 -8 -7 -9 -9 -3 -6 -4 -2 -1 -2 -3 -3 3 1 -1 0 -1 0 -1 -1 1 1 0 2 -1 -0 1 2 4 -0 4 -2 -7 -8 -8 -7 -7 -7 -6
-6 -5 -10 -2 -6 -4 -3 -3 -2 -3 2 -5 -2 -1 0 -3 2 1 3 2 0 -1 -0 2 1 2 2 1 -0 2 -0 0 1 3 3 2 4 -0 -4 -5 -6 -8 -8 -9 -7
-32 -34 -32 -9 -3 -7 -1 -3 -1 -1 2 1 -0 0 -1 -1 2 4 3 3 2 -0 -1 -0 -1 0 0 -1 -1 -1 1 1 2 3 6 1 1 -1 -4 -5 -7 -8 -8 -9 -9
-32 -34 -36 -22 -0 -6 -1 -0 2 4 -7 -4 -1 1 1 1 1 2 2 2 3 4 3 1 1 -0 -0 2 2 1 4 8 7 7 4 2 1 -1 -5 -7 -7 -7 -8 -8 -8
-32 -32 -33 -33 -10 -5 -1 -1 1 -4 -4 -5 -2 -1 2 -0 1 3 3 3 1 1 3 2 4 2 1 2 3 3 5 7 5 5 3 1 5 -0 -4 -5 -5 -5 -6 -6 -6
-30 -31 -30 -29 -14 -4 -1 3 -3 -6 -7 -7 -2 0 -1 -1 -0 3 3 2 0 1 3 -2 0 1 1 1 1 4 6 2 6 3 4 0 -1 -4 -5 -5 -6 -5 -4 -5 -5
-23 -19 -14 -13 -7 1 -1 0 -4 -6 -7 -5 -3 -6 -1 -3 0 2 1 -1 0 -1 -0 -2 1 1 0 0 1 2 0 6 6 6 5 1 -1 4 -0 -3 -4 -5 -4 -3 -3
-8 -13 -4 -4 1 0 1 -3 -5 -7 -6 -5 -6 -6 -7 -7 -3 -2 -2 -2 -1 1 -0 -1 1 1 -0 2 3 3 3 3 3 2 4 3 1 3 7 -0 -2 -3 -3 -2 -2
-5 -13 -5 0 1 -4 -1 -6 -5 -6 -6 -6 -6 -6 -6 -7 -6 -4 -2 -4 -3 0 2 -0 1 1 1 -2 -1 1 2 1 5 3 4 4 6 -1 -2 -2 -2 -2 -2 -2 -1
-8 -10 -11 1 -4 -6 -8 -7 -7 -4 -6 -7 -6 -6 -6 -6 -4 -6 -6 -8 -8 -2 -2 -0 2 2 0 -0 -2 0 1 0 1 1 6 8 6 -1 -2 -2 -3 -2 -2 -2 -1
-7 -10 -13 -5 -6 -3 -2 -4 -5 -7 -6 -6 -6 -6 -6 -6 -7 -5 -6 -6 -5 -5 -1 -1 -1 -2 1 -1 -2 2 -0 -0 1 4 3 5 5 1 -0 0 -1 -2 -2 -1 -2
-7 -11 -7 -9 -10 -8 -8 -5 -2 -2 -3 -2 -3 -2 -2 -2 -7 -7 -8 -8 -5 -4 -2 -1 2 -2 -2 -3 -1 3 3 1 2 2 5 4 3 1 0 1 -1 -2 -1 -2 -3
-7 -7 -8 -11 -12 -13 -14 -13 -12 -8 -6 -7 -2 -5 -4 -2 -2 -1 -2 -2 -2 -2 -4 -4 2 -0 0 -2 -1 -0 -2 -2 -1 -0 1 0 0 -2 -3 -3 -3 -3 -2 -2 -2
-6 -6 -6 -10 -12 -13 -14 -14 -13 -14 -13 -12 -7 -9 -8 -10 -10 -5 -5 -6 -4 -3 -2 0 -3 -3 0 -4 -2 1 -1 -3 -3 -4 -4 -1 -4 -5 -5 -5 -4 -4 -4 -3 -3

GFSSW_850_dewp_249.txt.gz
Dewpoint
-11 -11 -12 -12 -12 -12 -11 -11 -11 -10 -9 -8 -7 -7 -7 -6 -7 -6 -2 1 2 -2 -3 2 1 1 1 1 1 1 4 5 4 0 -1 4 8 7 8 6 6 8 12 13 11
-10 -11 -11 -12 -12 -12 -12 -13 -13 -12 -11 -10 -9 -8 -7 -7 -7 -5 -2 -0 -1 -3 -3 1 1 1 1 1 1 2 4 4 1 -0 5 6 8 8 8 8 7 7 12 13 11
-11 -11 -11 -11 -12 -12 -13 -13 -13 -13 -14 -13 -11 -10 -8 -7 -7 -0 -2 -2 -2 -3 -3 1 2 2 1 1 0 1 3 1 1 2 4 6 8 9 8 9 7 7 10 13 11
-10 -11 -12 -12 -13 -13 -13 -14 -14 -14 -14 -14 -14 -12 -10 -8 -4 -1 -1 -3 -3 -2 -2 1 1 1 1 2 -0 -0 -1 -0 -1 -1 4 6 5 7 7 6 8 6 9 10 13
-10 -11 -11 -11 -12 -12 -12 -13 -13 -13 -14 -15 -14 -13 -11 -4 -6 -7 -1 -3 -4 -3 0 1 1 1 2 2 1 -1 -2 -2 -2 -2 -2 4 6 6 5 4 3 5 7 8 8
-8 -10 -10 -10 -11 -12 -13 -13 -12 -12 -11 -13 -15 -13 -9 0 -7 -4 -3 -4 -2 -0 -1 1 2 3 2 2 2 0 -0 0 -0 -1 -2 -2 -1 6 6 5 4 4 3 5 7
-8 -8 -9 -10 -11 -12 -13 -13 -13 -11 -10 -12 -14 -11 -7 -14 -8 -3 -4 -4 -1 -1 -0 -1 -1 3 2 2 2 1 2 1 -0 -1 -2 -3 -2 -3 -4 2 5 4 4 5 7
-7 -8 -8 -10 -11 -13 -14 -14 -14 -12 -9 -11 -12 -9 -7 -10 -7 -3 -3 -3 0 -1 -0 1 -0 -0 1 1 1 1 2 3 0 -2 -2 -3 -0 -5 -6 -6 5 5 5 5 7
-7 -8 -9 -10 -12 -14 -16 -15 -13 -11 -9 -11 -11 -6 -4 -5 -5 -5 -3 -3 -0 0 1 0 -1 -1 -0 3 4 2 4 3 1 -4 -4 -4 -3 -6 -6 -6 1 3 4 6 6
-7 -8 -9 -10 -11 -13 -16 -13 -8 -7 -5 -6 0 2 -4 -6 -4 -4 -4 -2 0 1 1 1 -0 1 2 3 5 4 3 2 1 -3 -3 -3 -2 -3 -4 -4 -4 4 2 4 4
-4 -3 -4 -5 -7 -9 -10 -8 -1 2 3 -0 -1 -5 -4 -4 0 -0 -3 -0 0 2 3 1 3 4 2 2 2 2 2 2 1 -1 -2 -1 -1 -2 -4 -4 -5 -3 1 3 3
-27 -20 -10 -4 -2 -5 -8 -4 0 -4 -1 -10 -10 -1 -2 -1 1 0 -1 1 1 3 2 3 4 2 1 2 2 1 2 2 0 -1 -1 -1 -1 -2 -3 -4 -5 -5 -5 -5 -4
-30 -32 -32 -27 -18 -3 -5 -3 -3 -3 1 -5 -5 -3 -2 -3 -2 2 1 2 2 3 3 4 2 1 2 3 3 2 2 2 2 0 -1 -0 1 -1 -2 -3 -3 -4 -6 -6 -5
-29 -30 -32 -35 -10 -9 -1 -1 -2 -3 -1 -3 -5 -3 -2 -3 -2 -3 2 1 2 3 2 2 1 2 2 2 1 3 1 1 2 2 4 1 5 1 -1 -2 -3 -4 -5 -6 -6
-30 -30 -31 -31 -31 -12 -1 -2 -3 0 0 -3 -3 -1 -1 -4 -0 1 -3 2 3 1 0 2 1 2 3 2 0 2 0 1 2 3 2 3 3 2 -1 -2 -3 -5 -4 -5 -7
-28 -29 -30 -29 -30 -12 -4 -3 -1 0 -0 -1 0 1 0 -1 1 3 3 2 2 2 2 1 -1 0 1 -0 -0 0 2 2 2 3 3 2 3 2 -0 -4 -6 -6 -6 -6 -6
-22 -24 -26 -28 -28 -19 -5 -1 -0 2 -3 -1 1 1 0 0 0 4 4 4 4 4 4 1 1 -0 -0 2 0 1 2 1 5 6 5 0 3 1 -2 -5 -5 -5 -6 -5 -6
-17 -23 -24 -25 -27 -18 -6 1 3 -2 0 -4 -2 1 3 1 0 4 4 4 3 1 3 3 4 1 1 1 4 3 2 3 4 5 5 1 3 1 -3 -5 -5 -5 -6 -5 -5
-13 -19 -27 -26 -16 -4 2 2 -0 -1 -4 -5 -3 -1 1 0 1 3 4 3 2 2 3 4 3 1 1 1 1 4 5 2 3 2 4 3 1 -1 -2 -4 -5 -3 -3 -4 -5
-13 -10 -5 2 -8 -0 1 -2 -1 -3 -5 -5 -3 -2 0 -2 1 2 3 2 3 1 -0 1 2 1 2 1 1 2 2 5 4 5 5 3 2 3 -1 -2 -2 -2 -3 -3 -3
-15 -7 -6 -9 1 1 -1 -1 -3 -6 -6 -5 -5 -4 -5 -4 -2 1 2 0 1 1 0 1 1 2 2 4 4 4 5 3 4 3 3 4 3 2 1 0 -1 -2 -3 -2 -1
-10 -6 -10 -10 -3 -1 -1 -2 -2 -1 -2 -2 -2 -3 -3 -3 -3 -3 -3 -1 -4 1 2 1 2 3 3 1 1 1 3 3 4 5 3 2 2 -1 -0 -0 -1 -2 -3 -2 -1
-8 -7 -11 -8 -3 -4 -6 -8 -8 -6 -2 -4 -2 -1 -2 0 1 -2 -4 -7 -7 -5 1 0 3 4 3 1 0 3 3 2 2 2 2 3 1 -1 -2 -1 -1 -2 -1 -1 -2
-5 -7 -9 -10 -9 -8 -8 -8 -11 -13 -3 -9 -3 -4 -6 -5 -4 -1 -3 -4 -5 -3 -1 0 0 2 1 -1 2 3 2 2 3 5 3 3 1 0 -0 0 -0 -1 -2 -3 -4
-6 -7 -7 -6 -8 -9 -10 -10 -10 -7 -9 -11 -9 -7 -4 -6 -7 -6 -5 -7 -6 -6 -5 0 3 2 1 1 1 3 5 4 4 3 4 2 2 0 -0 0 -1 -2 -3 -3 -3
-6 -6 -5 -6 -9 -11 -11 -10 -11 -11 -12 -11 -9 -11 -10 -5 -5 -4 -5 -5 -5 -6 -5 -4 1 3 3 -1 -1 0 1 -0 3 4 5 6 5 1 1 -4 -4 -2 -2 -3 -3
-6 -7 -5 -6 -8 -9 -9 -7 -7 -12 -12 -13 -12 -11 -11 -10 -10 -10 -9 -7 -7 -7 -7 -3 -2 -2 1 0 -0 2 -1 -2 -1 -2 -0 4 -2 -5 -5 -5 -5 -4 -4 -4 -4

GFSSW_850_dewp_252.txt.gz
Dewpoint
-10 -11 -11 -12 -12 -12 -13 -13 -13 -13 -12 -12 -11 -10 -8 -7 -8 -8 -8 -4 0 -2 -3 0 1 1 2 2 1 2 4 5 4 2 1 1 6 6 6 8 7 7 5 8 11
-10 -11 -11 -11 -12 -12 -12 -13 -13 -13 -14 -14 -13 -12 -10 -9 -9 -10 -3 -3 -1 -3 -3 -3 0 1 1 1 1 1 4 4 2 -0 2 4 7 6 7 7 7 7 7 8 8
-10 -11 -12 -12 -13 -13 -13 -14 -14 -14 -15 -14 -14 -14 -12 -10 -9 -2 -4 -3 -1 -2 -4 -3 -0 1 1 1 1 2 3 1 1 0 1 5 8 7 9 8 7 6 5 7 7
-9 -11 -12 -12 -12 -12 -13 -13 -13 -13 -13 -14 -15 -14 -13 -11 -10 -1 -3 -2 -2 -3 -3 0 1 1 1 2 1 1 1 1 0 -1 1 5 5 7 7 5 5 6 6 7 7
-10 -11 -11 -11 -11 -12 -12 -13 -13 -12 -12 -12 -13 -15 -14 -9 -11 -9 -7 -2 -3 -3 -2 1 1 1 2 2 2 -0 -2 -1 -1 -0 -1 -0 5 4 6 1 4 6 6 5 6
-10 -10 -10 -10 -11 -12 -13 -14 -14 -13 -12 -10 -11 -13 -11 -1 -14 -9 -3 -2 -3 -2 -0 1 2 3 3 2 2 1 1 1 0 -0 -0 -0 1 1 3 2 4 3 4 5 5
-8 -9 -10 -10 -11 -13 -14 -15 -16 -15 -13 -10 -9 -12 -7 -15 -14 -4 -4 -4 -3 -1 -1 -1 -1 1 2 2 2 1 2 1 1 -0 -0 -1 -1 -1 -4 -3 -1 4 4 3 5
-9 -9 -10 -11 -12 -14 -15 -17 -17 -15 -12 -9 -10 -7 -6 -14 -11 -2 -2 -3 -1 -0 -0 0 -0 -1 1 1 1 2 1 3 0 -2 -1 -2 2 -3 -5 -5 -3 -1 3 5 5
-6 -7 -9 -10 -11 -12 -14 -17 -15 -12 -9 -9 -9 -7 -7 -8 -11 -9 -2 -4 -2 0 -0 0 -1 -1 -0 2 3 3 3 3 1 -3 -3 -2 -0 -5 -6 -5 -5 -3 1 4 6
-14 -12 -7 -5 -4 -5 -9 -11 -7 -2 -4 -7 -0 2 -5 -7 -6 -6 -5 -3 -0 1 1 1 -0 1 1 3 2 3 3 2 2 -1 -2 -1 -2 -4 -5 -4 -4 -4 -4 2 5
-29 -31 -32 -26 -13 -4 -5 -12 -4 -1 2 -2 -2 -7 -5 -5 -2 -1 -4 -2 0 1 2 1 2 3 2 2 1 2 3 3 1 -1 -1 -0 -1 -2 -3 -4 -4 -4 -4 2 4
-29 -30 -32 -34 -35 -16 -6 -5 -1 -3 -0 -9 -10 -0 -2 0 0 0 -2 -1 1 3 2 3 4 1 1 1 2 3 3 2 1 -1 -0 -0 0 -1 -2 -3 -3 -3 -4 -4 -1
-28 -30 -30 -31 -22 -6 -7 -1 -0 0 -0 -5 -5 -6 -6 -6 0 -0 -2 -0 2 3 3 3 2 1 2 3 4 3 3 2 2 1 -0 0 1 -0 -2 -3 -3 -3 -4 -4 -5
-28 -29 -30 -30 -19 -29 -1 0 -1 -2 -1 -3 -5 -3 -1 -3 -1 -3 0 0 2 3 3 3 2 2 3 3 3 4 1 1 2 2 4 1 5 2 -1 -1 -3 -3 -3 -3 -4
-22 -23 -26 -27 -29 -28 -5 -1 -1 0 -3 -4 -4 -1 -2 -4 -1 -0 -2 2 3 2 2 2 1 3 3 3 0 2 1 1 2 3 2 3 4 2 -1 -1 -3 -5 -4 -5 -4
-22 -23 -21 -21 -24 -23 -8 -3 -1 -1 -3 -2 -1 0 -1 -1 -0 3 1 0 2 3 2 1 -1 0 1 0 1 -0 1 2 2 3 2 2 3 1 -1 -3 -6 -6 -6 -6 -5
-16 -25 -23 -22 -21 -16 -9 -1 -1 1 -6 -0 1 1 -0 0 -0 3 3 3 4 4 4 2 2 0 -0 1 0 1 3 2 4 6 5 1 3 1 -2 -4 -5 -6 -5 -5 -4
-16 -19 -24 -24 -24 -3 -6 1 2 -6 -1 -3 -1 2 2 1 -0 4 4 3 2 2 2 3 2 1 0 1 3 3 2 2 3 4 4 1 4 2 -3 -3 -5 -5 -4 -4 -4
-22 -20 -9 1 1 -7 1 1 -2 -2 -4 -4 -4 2 2 1 -1 4 3 3 2 2 4 3 3 0 0 0 1 3 4 1 2 1 3 3 1 -2 -2 -3 -4 -3 -4 -3 -4
-20 -17 -5 -7 -0 -4 -1 -4 -2 -3 -2 -5 -3 -3 -0 -1 1 2 3 2 2 2 -1 0 3 1 1 1 1 1 1 4 4 5 5 3 2 3 -1 -2 -2 -2 -2 -2 -2
-22 -9 -8 -9 -6 -1 -1 -4 -1 -2 -3 -2 -1 -2 -3 -3 -4 -1 1 1 1 1 1 1 1 1 2 3 3 4 4 3 3 2 2 2 3 1 1 0 -1 -2 -2 -1 -2
-15 -8 -11 -9 -8 -3 -1 -2 -2 -4 -3 -4 -3 -0 -2 -0 1 -2 -1 -2 -4 -5 1 2 2 3 3 1 1 1 3 3 3 4 1 1 1 -1 -0 -1 -2 -2 -2 -1 -2
-12 -6 -11 -8 -4 -6 -9 -11 -11 -12 -6 -6 -3 -3 -5 -2 -1 -0 -2 -5 -6 -4 -0 2 5 5 4 1 0 4 3 2 1 1 2 2 1 -2 -2 -0 -1 -1 -1 -1 -2
-8 -6 -8 -9 -8 -9 -8 -9 -10 -9 -7 -11 -9 -6 -9 -8 -6 -4 -5 -6 -8 -6 -4 -0 2 3 4 -1 2 3 3 3 3 5 3 0 -0 0 1 1 -0 -3 -3 -2 -3
-8 -7 -6 -6 -8 -8 -9 -9 -10 -11 -11 -13 -10 -8 -5 -8 -9 -6 -7 -8 -10 -5 -7 -4 -1 -1 -2 1 2 2 3 3 4 3 3 1 1 1 -0 -1 -2 -3 -3 -4 -4
-7 -7 -7 -6 -6 -9 -10 -10 -8 -11 -11 -11 -9 -11 -10 -10 -9 -6 -7 -8 -7 -6 -7 -5 -3 -3 -3 0 3 3 2 3 4 4 5 5 4 -3 -5 -5 -4 -5 -5 -5 -4
-6 -6 -5 -7 -7 -8 -9 -8 -8 -6 -12 -13 -12 -10 -12 -10 -10 -11 -11 -11 -9 -7 -8 -7 -3 -3 -3 -4 -3 3 -3 -2 1 -4 -2 2 -4 -6 -5 -6 -7 -6 -6 -6 -5

GFSSW_850_dewp_258.txt.gz
Dewpoint
-1 -6 -10 -11 -12 -12 -13 -13 -13 -14 -14 -14 -14 -14 -14 -14 -15 -14 -14 -12 -9 -3 -4 1 1 1 1 2 2 1 3 3 1 1 -1 -1 3 2 4 6 6 7 6 7 10
0 -7 -8 -11 -12 -12 -12 -13 -13 -13 -14 -14 -14 -15 -15 -15 -15 -16 -14 -9 -3 -1 -4 0 1 1 2 1 1 2 3 2 1 0 0 1 4 2 6 6 6 5 4 6 8
-3 -9 -11 -11 -11 -12 -12 -13 -13 -14 -14 -14 -14 -14 -13 -15 -15 -11 -5 -5 -1 -2 -3 -2 0 1 0 1 1 2 3 1 0 1 0 1 4 3 7 7 5 2 1 4 7
-4 -9 -10 -10 -11 -11 -12 -12 -13 -14 -15 -15 -15 -14 -12 -14 -16 -2 -3 -5 -4 -3 -2 -1 1 1 1 2 1 2 1 1 0 -0 0 2 2 6 5 3 -1 -1 2 5 5
-6 -9 -10 -10 -11 -11 -12 -13 -14 -15 -16 -17 -16 -14 -11 -10 -15 -11 -1 -2 -3 -3 -2 -1 1 1 1 1 1 2 1 0 0 -0 -0 -0 3 3 2 -1 -2 -2 2 3 5
-9 -9 -10 -10 -10 -11 -12 -13 -13 -14 -16 -17 -16 -13 -8 -3 -16 -16 -8 -2 -3 -2 -2 0 1 1 2 3 2 1 1 1 1 1 1 1 0 1 -1 -2 -1 0 -1 -2 5
-17 -15 -16 -15 -13 -10 -8 -8 -10 -11 -15 -14 -13 -8 -4 -14 -15 -14 -10 -5 -1 -2 -2 -0 1 2 3 2 2 1 2 0 -0 -0 -0 0 0 3 -3 -2 -2 -1 -0 1 2
-25 -26 -26 -27 -28 -27 -19 -10 -6 -6 -13 -10 -9 0 -6 -13 -14 -11 -5 0 -0 -2 -0 -0 -1 -1 1 1 -0 2 1 2 -4 -1 -2 -1 1 -2 -3 -3 -4 -3 -1 -0 -1
-25 -27 -29 -30 -31 -32 -30 -22 -7 -4 -8 -5 -2 0 -7 -11 -12 -13 -9 -1 -1 -1 1 0 0 -0 -0 1 0 1 1 2 1 -2 -2 -1 0 -3 -5 -4 -3 -4 -4 -4 -5
-22 -25 -27 -29 -29 -30 -11 -13 -5 -4 -0 2 2 1 -5 -8 -6 -9 -10 -0 -0 0 1 1 -0 1 1 1 2 -0 3 2 2 -0 -0 1 0 -2 -2 -2 -3 -3 -4 -4 -4
-18 -22 -23 -25 -27 -28 -17 -18 -5 -2 1 -3 -3 -5 -8 -4 -4 -3 -7 0 -2 0 2 1 2 3 1 1 -0 1 2 3 1 0 1 1 0 -1 -2 -2 -3 -3 -3 -3 -4
-18 -22 -23 -23 -23 -25 -22 -2 2 1 2 -5 -6 -2 -3 -2 -1 -0 -3 -0 0 2 1 2 4 1 -0 1 2 2 3 3 1 0 0 1 1 -1 -2 -2 -2 -3 -3 -3 -4
-22 -26 -27 -34 -30 -16 -22 2 2 1 2 -1 -2 -2 -3 -3 -1 -0 -2 -2 1 2 3 3 2 1 1 2 3 2 3 2 3 1 0 1 1 -2 -3 -3 -3 -3 -3 -3 -4
-22 -24 -25 -27 -19 -19 -8 0 -1 1 0 -3 -3 -3 -2 -4 1 -3 1 -2 1 2 3 3 1 2 3 3 2 3 2 2 3 3 4 0 4 1 -2 -2 -3 -5 -4 -4 -3
-25 -25 -26 -24 -22 -21 -17 -16 -1 0 -10 -10 -4 -1 -1 -3 -2 -0 1 0 2 2 2 2 3 3 4 3 2 3 1 3 2 2 2 2 3 2 -2 -4 -5 -5 -6 -5 -4
-20 -22 -23 -19 -15 -5 -3 -1 1 -3 -6 -8 -2 -0 -1 -2 -1 3 -0 1 1 2 2 1 -0 1 2 2 1 0 1 1 2 3 4 2 3 1 -3 -4 -5 -5 -3 -5 -5
-18 -20 -18 -4 -7 -3 -11 -1 -3 -3 -10 -6 0 1 -1 -1 -1 3 1 2 3 3 3 2 3 1 -0 1 1 1 2 1 3 4 4 -0 3 2 -2 -4 -5 -4 -3 -1 -5
-17 -15 -8 -10 -8 -4 -6 -1 -1 -9 -4 -3 -4 -2 1 -1 -1 2 2 1 -0 1 1 3 2 2 1 1 1 3 3 2 3 4 3 0 3 2 -2 -3 -5 -3 -2 -2 -0
-19 -15 -12 -13 -10 -6 -2 -1 -3 -1 -2 -1 -2 -0 1 -1 -0 2 2 2 -0 1 3 2 3 -1 0 0 -0 2 5 -0 0 -0 4 2 1 -2 -2 -3 -3 -2 -2 -2 -1
-18 -18 -13 -15 -11 -3 -2 -5 -2 -6 -6 -3 -1 -2 -0 -0 -0 2 2 -3 -2 -2 -2 1 2 -0 0 -0 0 1 1 4 4 3 4 2 1 2 -1 -1 -2 -2 -1 -1 -1
-17 -16 -15 -15 -5 -3 -3 -4 -4 -5 -7 -3 -2 -2 -2 -2 -3 1 -0 -3 -3 -3 -2 2 2 1 2 2 3 3 4 2 2 1 1 1 1 -2 -0 -2 -1 -1 -1 -1 -2
-13 -13 -15 -15 -10 -8 -6 -7 -7 -6 -8 -5 -3 -3 -4 -4 -5 -2 -2 -2 -4 -3 -2 -1 2 4 2 0 -0 1 2 2 3 4 0 -1 -1 0 -1 -1 -1 -2 -2 -2 -2
-10 -10 -14 -11 -7 -8 -9 -9 -10 -10 -7 -9 -7 -7 -8 -6 -6 -4 -6 -7 -11 -6 -3 -2 -0 3 4 1 1 3 2 2 -0 1 1 3 0 -2 -3 -4 -4 -4 -4 -4 -4
-10 -7 -10 -9 -9 -8 -7 -8 -10 -11 -10 -11 -11 -10 -11 -11 -6 -6 -8 -8 -12 -13 -5 -5 -2 -1 0 -0 1 3 3 4 2 5 2 0 0 -0 -4 -4 -5 -6 -6 -6 -5
-9 -9 -6 -7 -9 -8 -7 -8 -9 -7 -10 -12 -11 -10 -8 -9 -12 -10 -11 -11 -14 -10 -7 -6 -4 -4 -5 -6 -2 -0 1 2 3 4 4 1 2 -2 -4 -5 -5 -6 -7 -7 -7
-8 -7 -7 -6 -7 -8 -8 -8 -8 -7 -7 -9 -10 -11 -9 -13 -12 -10 -8 -9 -10 -10 -9 -7 -7 -7 -10 -9 -7 -2 -5 -4 -4 -6 -2 -1 -4 -7 -6 -7 -6 -6 -6 -6 -6
-6 -7 -6 -7 -8 -7 -10 -8 -8 -9 -9 -8 -10 -11 -12 -11 -11 -11 -12 -11 -11 -11 -10 -9 -10 -8 -6 -6 -9 -5 -7 -5 -7 -9 -7 -8 -7 -8 -8 -8 -7 -8 -7 -7 -7